Wetbulb
62.17 59.57 58.13 59.86 60.15 59.71 58.99 57.52 56.57 58.40 59.77 60.97 62.35 63.41 65.31 67.66 67.80 67.55 67.60 67.51 68.42 69.55 71.64 72.97 73.84 74.72 74.67 75.41 75.23 75.18 75.01 76.04 76.49 75.75 75.11 75.36 77.95 75.71 75.82 74.34 74.98 74.76 73.77 73.92
59.40 57.27 61.25 61.05 60.25 59.12 58.27 56.95 57.29 58.81 59.99 61.02 60.88 61.66 65.08 67.19 67.58 68.18 68.27 68.25 67.80 69.36 71.02 73.00 73.98 74.64 74.70 75.34 76.05 76.42 76.46 76.84 76.75 76.11 76.36 75.77 76.01 76.85 76.53 76.13 76.46 76.88 77.04 76.37
57.89 59.26 61.27 60.10 58.88 57.93 58.41 57.06 56.23 56.06 58.75 61.90 61.13 60.73 63.46 66.34 68.22 68.87 69.23 69.58 69.32 69.74 69.39 71.44 73.02 73.51 74.34 75.29 75.94 76.31 76.87 77.13 77.07 76.93 76.42 76.34 76.17 76.47 75.25 76.18 75.26 75.92 76.90 77.02
58.35 60.22 59.14 59.03 58.36 59.14 56.37 59.09 56.74 56.67 56.91 54.46 59.97 53.02 61.02 64.67 65.92 67.46 68.34 68.98 69.06 70.37 71.60 71.98 72.17 71.27 72.36 72.98 75.62 76.47 76.67 76.62 76.78 77.08 76.22 75.79 75.58 74.95 74.46 74.59 76.27 76.86 76.93 76.35
54.78 56.94 57.25 57.44 58.44 59.48 57.53 58.17 57.02 57.02 57.05 57.22 57.72 54.77 58.81 62.79 62.94 65.93 67.99 68.86 69.52 70.97 71.79 71.51 71.59 70.81 72.92 73.94 74.63 74.01 75.70 76.14 76.34 76.31 76.52 74.56 73.84 74.81 75.86 75.61 76.31 77.48 77.47 77.55
54.69 58.06 58.83 58.79 60.35 59.52 59.52 56.46 57.08 57.90 57.41 52.62 55.89 55.04 55.13 58.61 63.79 64.55 67.53 68.97 69.91 70.66 72.18 72.68 72.28 72.48 72.60 74.65 74.08 75.33 73.16 73.33 75.75 74.96 73.07 71.02 73.56 74.59 74.77 75.14 75.23 75.67 76.09 75.87
52.79 54.47 56.66 57.28 56.62 58.11 56.79 55.43 51.62 51.35 51.63 50.79 56.46 54.67 55.92 61.89 63.67 64.47 65.29 68.72 70.05 71.33 72.04 71.91 70.87 71.24 72.61 72.69 73.82 73.91 73.70 72.13 72.10 72.15 72.45 71.18 71.84 71.85 73.69 72.01 72.44 72.91 72.57 73.24
49.36 47.54 54.50 57.16 55.46 53.98 54.39 54.89 51.86 47.90 49.39 51.31 57.00 52.38 57.75 64.56 66.48 66.99 67.74 67.58 70.12 71.06 71.91 71.37 71.00 71.52 71.50 72.33 72.17 71.53 72.54 72.87 72.59 71.31 72.10 71.39 70.40 69.86 71.62 69.96 70.14 69.91 69.84 70.37
49.09 49.47 54.75 55.59 57.52 56.87 54.64 53.17 57.36 53.68 54.73 51.94 54.21 56.73 60.16 64.64 65.07 66.65 67.28 68.24 69.23 70.40 70.96 70.63 70.77 71.08 71.68 72.34 73.14 72.85 73.04 72.47 72.66 72.93 72.84 72.23 72.26 69.83 69.32 70.67 70.77 69.92 69.20 68.41
52.43 49.35 53.25 54.53 56.14 56.54 55.61 57.53 52.39 54.05 49.18 48.46 52.42 53.82 54.99 62.38 64.18 65.98 66.76 68.05 69.14 70.37 70.53 70.85 71.21 71.53 72.18 72.81 73.49 72.94 72.54 71.58 70.75 71.38 70.86 70.04 69.26 69.20 68.56 68.17 67.38 67.01 66.62 66.79
53.30 51.17 51.66 53.79 52.92 52.07 53.49 53.60 55.13 55.97 54.66 50.99 49.68 53.09 60.61 62.57 65.12 65.57 67.34 68.22 69.01 69.53 70.21 70.74 71.44 71.74 71.46 71.80 72.05 70.91 70.96 70.36 69.53 69.25 68.72 68.21 67.55 67.26 66.81 65.96 65.73 65.49 65.94 66.11
53.46 51.76 48.80 50.54 54.60 55.34 55.46 54.30 55.59 52.20 52.84 54.48 53.72 53.60 63.36 64.79 66.02 67.38 67.97 69.06 69.72 69.88 70.10 70.59 70.28 69.83 70.31 70.89 70.20 70.07 69.78 69.00 68.34 67.99 67.32 66.48 66.35 66.01 65.36 65.05 64.82 65.24 64.93 65.65
52.98 49.72 47.21 48.47 51.76 53.90 52.25 54.16 55.25 55.23 55.49 54.13 51.79 53.39 65.12 66.13 66.15 68.11 67.89 69.12 69.47 70.11 69.73 69.48 69.69 69.61 68.89 68.78 67.97 68.88 68.63 67.75 67.52 66.92 65.94 65.37 64.77 64.16 64.05 64.04 64.36 64.51 64.37 64.23
58.20 50.45 48.96 46.95 49.44 51.68 50.52 51.92 54.08 54.09 51.17 52.23 52.77 54.92 62.22 65.03 65.76 66.84 68.21 69.13 67.94 69.15 69.23 69.68 69.51 68.75 68.83 69.03 68.34 68.35 67.34 66.84 66.15 65.66 64.89 64.01 63.65 63.78 63.44 63.85 63.93 63.23 63.20 63.04
52.80 48.90 50.78 50.96 51.34 51.40 51.34 51.50 52.89 53.06 53.96 52.62 54.31 55.39 58.48 64.62 66.57 67.35 68.92 68.60 67.59 68.61 68.84 69.00 68.74 68.10 68.28 67.70 67.56 67.24 66.09 65.83 65.51 64.36 63.58 63.48 63.88 63.88 63.29 62.59 62.19 62.12 62.02 61.79
54.94 50.34 51.82 50.02 51.17 51.14 49.61 51.33 53.20 54.02 54.37 55.38 56.37 56.35 61.57 66.34 68.70 67.96 68.29 67.90 67.32 68.35 68.84 69.06 68.83 68.66 68.02 67.51 66.86 65.98 65.43 64.57 64.50 63.41 63.04 63.65 63.09 62.46 61.73 61.56 61.21 60.86 60.27 59.83
54.11 51.86 51.71 48.28 51.22 50.80 48.08 50.93 52.34 53.63 55.51 56.08 55.00 58.79 64.80 65.11 67.06 67.73 67.82 68.14 67.89 68.96 69.09 69.11 69.14 68.74 68.31 67.12 66.51 65.05 64.26 63.92 63.15 62.74 62.74 62.45 61.96 61.00 61.05 60.51 59.25 58.72 58.46 58.86
56.29 55.63 54.51 49.68 52.29 45.27 52.17 55.72 55.11 54.65 55.58 58.52 59.94 62.85 65.17 66.18 68.03 68.85 69.72 68.64 68.96 69.42 69.20 69.30 69.33 68.35 67.35 66.67 65.32 64.39 63.46 62.81 62.21 61.74 61.50 61.24 60.43 60.49 60.51 59.18 58.86 58.69 58.40 58.24
58.98 56.63 53.20 50.28 49.40 51.17 53.99 56.38 55.24 54.61 55.55 60.76 60.77 62.81 65.20 67.00 67.46 66.96 69.05 69.98 70.16 70.16 70.13 69.52 69.12 67.74 66.74 65.52 64.48 63.26 62.33 61.80 61.39 60.79 60.07 59.64 60.10 60.25 59.72 58.61 58.82 58.73 58.72 58.49
57.00 57.61 54.84 53.82 49.05 46.78 53.67 56.87 59.64 59.74 53.91 60.35 62.42 64.47 65.15 66.26 62.08 64.55 68.49 69.87 70.33 70.25 69.76 68.88 67.75 66.46 65.46 64.47 63.91 62.60 61.52 61.08 60.11 60.23 60.20 60.38 59.82 59.31 58.83 59.39 59.25 61.43 61.29 59.76
52.74 53.91 52.28 52.43 51.57 53.07 59.17 60.44 62.73 53.97 54.17 62.34 64.06 65.98 66.08 64.80 65.81 68.55 69.06 69.47 70.50 69.53 68.89 68.35 66.75 65.58 64.82 64.33 63.31 61.32 60.68 60.02 60.80 61.19 61.02 60.59 60.00 60.03 60.31 60.32 61.92 60.83 60.03 60.02
54.28 52.77 52.00 53.37 51.26 49.50 61.78 61.60 57.69 59.41 61.06 62.41 65.73 67.14 66.98 68.13 69.03 68.24 69.27 70.17 69.42 68.21 67.46 66.88 65.86 64.61 64.00 63.26 62.01 60.18 59.85 60.99 61.27 61.29 60.91 60.62 61.00 60.64 59.70 60.98 61.75 60.73 60.48 59.90
52.77 55.49 53.85 55.19 55.37 63.59 63.71 62.75 64.64 66.20 65.98 66.46 66.95 68.18 68.40 68.34 68.20 68.94 69.02 69.05 68.46 67.57 66.59 66.51 64.92 63.28 62.82 61.95 61.59 59.85 60.62 61.00 60.20 59.98 59.79 60.14 59.99 60.96 61.15 60.79 60.52 58.86 60.00 58.22
59.40 60.89 56.98 57.68 58.18 59.33 62.42 64.07 65.83 66.06 66.69 68.92 68.62 68.64 69.38 68.23 68.78 68.19 66.99 67.38 66.84 66.49 65.65 65.45 63.76 62.36 60.94 61.01 61.02 61.26 61.06 61.11 60.35 59.68 59.53 59.49 59.42 59.92 60.93 58.92 60.22 59.53 58.47 57.19
60.02 61.81 59.72 60.01 62.76 63.76 64.37 65.18 65.66 65.94 67.59 68.67 68.96 69.39 68.96 68.32 66.84 67.41 66.66 66.81 66.43 65.68 65.19 64.41 63.31 62.00 60.53 60.72 60.50 60.49 60.87 60.65 59.42 58.93 58.75 58.52 58.25 59.31 58.89 59.92 59.35 57.90 59.80 55.36
61.94 60.53 59.20 57.13 64.44 63.64 64.45 65.95 66.43 65.51 67.91 69.16 68.10 68.06 68.17 68.32 66.90 67.39 66.47 66.38 65.54 64.43 63.82 63.33 63.02 61.64 60.34 59.98 59.67 60.86 61.21 61.03 59.42 57.66 57.45 56.92 57.71 58.87 59.80 59.67 59.22 50.37 49.33 48.54
MSLP
1001.41 1000.73 1000.06 999.67 1000.28 1000.39 1000.59 1000.64 1000.76 1000.94 1001.59 1001.82 1001.79 1002.07 1003.05 1004.48 1004.95 1005.22 1005.50 1005.93 1006.39 1006.78 1007.30 1007.94 1008.71 1009.24 1009.75 1010.35 1010.93 1011.64 1012.32 1012.75 1013.41 1013.86 1013.93 1014.02 1014.56 1014.55 1014.91 1015.02 1015.40 1015.46 1015.66 1015.52
1001.13 1000.18 999.65 1000.21 1000.78 1000.68 1000.61 1000.57 1000.40 1000.66 1001.28 1001.33 1000.78 1001.01 1001.67 1002.92 1003.79 1004.18 1004.80 1005.22 1005.58 1006.09 1006.75 1007.70 1008.34 1008.86 1009.20 1009.74 1010.53 1011.25 1012.03 1012.85 1013.37 1013.55 1014.03 1014.14 1014.19 1014.26 1014.44 1014.13 1014.65 1014.69 1014.76 1014.84
999.90 999.56 1000.08 1000.58 1000.62 1000.53 1000.33 1000.23 1000.48 1000.69 1000.55 1000.62 1000.42 999.70 1000.99 1001.97 1003.07 1003.58 1004.17 1004.73 1005.17 1005.76 1006.59 1007.50 1008.25 1008.67 1009.06 1009.38 1010.09 1010.88 1011.70 1012.56 1013.08 1013.44 1013.88 1014.04 1014.14 1014.05 1014.15 1013.78 1014.48 1014.21 1014.12 1014.32
999.96 999.86 1000.34 1000.33 1000.14 1000.35 999.72 1000.27 1000.79 1000.66 1000.08 999.20 1000.07 998.68 999.45 1000.68 1001.83 1002.90 1003.58 1004.06 1004.59 1005.50 1006.39 1007.39 1008.22 1009.03 1009.50 1009.69 1010.12 1010.86 1011.65 1012.23 1012.65 1013.01 1013.21 1013.60 1013.60 1013.55 1013.88 1013.81 1013.66 1013.43 1013.68 1013.98
999.76 1000.02 1000.31 999.94 999.78 1000.20 1000.07 1000.68 1000.91 1000.81 1000.18 999.67 999.29 999.16 998.66 1000.21 1000.99 1002.00 1002.92 1003.30 1003.99 1005.10 1006.23 1006.81 1008.03 1009.41 1009.84 1009.92 1010.55 1011.26 1011.80 1012.35 1012.87 1013.01 1013.26 1013.44 1013.54 1013.30 1013.64 1013.77 1013.65 1013.48 1013.52 1013.32
999.86 1000.53 1000.03 999.60 999.69 999.92 1000.36 1000.73 1000.78 1000.53 1000.27 999.17 998.42 998.98 997.99 998.82 1000.67 1001.51 1002.03 1002.77 1003.48 1004.54 1006.03 1006.84 1008.59 1009.40 1009.65 1010.41 1011.22 1011.61 1011.87 1012.19 1013.33 1013.49 1013.80 1014.00 1014.17 1013.12 1013.24 1013.61 1013.54 1013.01 1013.23 1013.21
999.98 1000.11 1000.06 999.98 999.49 999.96 1000.26 999.86 999.38 999.01 998.77 998.21 998.93 998.94 998.36 999.45 1001.04 1001.85 1002.20 1002.46 1003.29 1004.60 1006.07 1007.38 1008.67 1009.52 1009.97 1010.42 1011.36 1012.15 1012.75 1013.05 1013.39 1013.15 1013.89 1014.50 1014.94 1013.63 1013.62 1013.92 1014.41 1014.10 1014.14 1013.93
998.88 999.17 999.57 999.69 999.13 998.91 999.31 998.94 998.21 997.77 997.90 998.18 998.93 998.40 998.29 1000.15 1001.47 1002.22 1002.79 1003.06 1003.47 1004.69 1006.10 1007.45 1008.49 1009.36 1010.07 1010.45 1011.44 1012.55 1013.08 1013.53 1013.72 1013.57 1013.78 1014.65 1014.83 1014.35 1014.04 1014.34 1014.97 1015.23 1015.29 1015.15
998.31 998.24 998.87 999.14 999.17 999.14 998.59 998.57 997.98 997.42 997.80 998.42 997.70 998.13 998.66 999.93 1001.25 1002.34 1002.78 1003.29 1004.16 1005.16 1006.30 1007.47 1008.40 1009.42 1010.28 1010.63 1011.49 1012.39 1012.96 1013.13 1013.31 1013.83 1014.21 1014.48 1014.59 1014.59 1014.52 1014.63 1015.36 1015.35 1015.41 1015.30
998.60 998.37 998.80 998.93 999.37 998.91 998.73 998.11 997.95 997.85 997.34 997.41 997.11 997.70 997.85 999.36 1000.62 1002.17 1003.01 1003.86 1004.82 1005.64 1006.67 1007.44 1008.36 1009.64 1010.27 1010.79 1011.63 1012.48 1012.96 1013.32 1013.82 1014.16 1014.60 1014.84 1015.04 1015.08 1014.96 1015.35 1015.82 1015.97 1016.10 1016.08
998.72 998.69 998.60 998.91 998.50 997.79 998.64 998.17 997.81 997.05 997.05 996.76 996.71 996.68 996.81 998.70 1000.08 1001.59 1002.86 1004.17 1005.16 1006.02 1006.77 1007.70 1008.67 1009.90 1010.65 1011.32 1011.78 1012.87 1013.32 1013.78 1014.06 1014.41 1014.83 1015.12 1015.18 1015.31 1015.46 1015.82 1016.08 1016.22 1016.29 1016.38
999.01 998.54 997.91 997.98 997.73 998.18 997.33 997.28 997.18 997.05 997.20 997.49 996.95 996.82 998.25 998.87 999.96 1001.54 1003.04 1004.25 1005.37 1006.25 1007.10 1008.07 1009.22 1010.34 1011.08 1011.69 1012.49 1012.98 1013.50 1013.84 1014.18 1014.63 1014.80 1015.26 1015.41 1015.56 1015.82 1016.11 1016.19 1016.22 1016.45 1016.42
998.83 998.64 997.75 997.62 997.60 998.21 998.18 997.64 997.17 996.79 996.59 996.19 996.79 996.83 998.63 999.48 1000.20 1001.98 1003.34 1004.55 1005.95 1006.68 1007.66 1008.72 1009.66 1010.59 1011.63 1012.39 1013.15 1013.44 1013.92 1014.25 1014.28 1014.57 1014.94 1015.32 1015.46 1015.74 1016.18 1016.44 1016.51 1016.51 1016.57 1016.62
999.03 998.08 997.50 996.64 996.49 996.95 997.39 997.31 997.06 996.70 996.24 996.10 996.29 996.87 998.43 999.36 1000.35 1002.06 1003.37 1004.96 1006.34 1006.88 1008.00 1008.82 1009.83 1011.13 1011.88 1012.42 1013.23 1013.81 1014.19 1014.50 1014.70 1015.17 1015.53 1015.76 1016.07 1016.46 1016.58 1016.83 1016.82 1016.87 1017.00 1016.96
999.04 997.96 997.56 997.30 996.79 996.88 996.51 996.52 996.56 996.54 996.23 995.64 995.65 995.81 996.56 998.04 999.83 1001.77 1003.36 1005.14 1006.20 1006.84 1007.91 1008.83 1009.74 1011.08 1012.00 1012.77 1013.42 1014.02 1014.47 1014.88 1015.22 1015.52 1015.83 1016.18 1016.58 1016.88 1017.23 1017.38 1017.34 1017.36 1017.46 1017.44
998.94 998.10 997.85 997.35 997.09 996.71 996.37 996.20 995.76 996.05 996.13 995.77 995.84 995.66 996.21 997.57 999.74 1001.58 1003.04 1004.74 1005.80 1006.68 1007.65 1008.68 1009.85 1010.91 1011.82 1012.64 1013.27 1014.18 1014.84 1015.25 1015.63 1015.86 1016.16 1016.55 1016.85 1017.17 1017.32 1017.48 1017.67 1017.84 1017.79 1017.77
998.71 998.15 997.96 996.99 996.66 996.32 995.83 995.46 995.36 995.49 995.49 995.49 995.22 995.54 996.83 998.13 999.64 1001.35 1002.64 1003.85 1004.99 1006.21 1007.45 1008.48 1009.55 1010.57 1011.44 1012.38 1013.47 1014.29 1015.01 1015.35 1015.66 1016.02 1016.43 1016.80 1017.20 1017.54 1017.74 1017.88 1018.01 1018.13 1018.15 1018.16
998.84 998.51 997.65 996.66 996.29 995.50 994.70 994.34 994.64 994.77 994.76 994.81 995.11 996.16 997.13 998.11 1000.02 1001.53 1002.52 1003.48 1004.82 1006.07 1007.26 1008.38 1009.39 1010.48 1011.40 1012.39 1013.54 1014.62 1015.11 1015.55 1015.97 1016.44 1016.84 1017.26 1017.61 1017.86 1018.02 1018.08 1018.11 1018.20 1018.26 1018.13
999.00 998.70 997.50 996.72 995.90 994.93 994.53 994.63 994.55 994.21 994.13 994.52 995.02 996.27 997.54 998.64 1000.36 1001.62 1002.39 1003.47 1004.67 1006.03 1007.36 1008.47 1009.58 1010.63 1011.62 1012.78 1013.84 1014.49 1015.08 1015.66 1016.02 1016.50 1017.04 1017.35 1017.60 1017.88 1018.05 1018.06 1018.17 1018.23 1018.07 1017.96
998.57 998.78 998.16 996.42 995.50 993.99 993.58 993.33 993.77 993.45 993.26 993.62 994.77 996.22 997.32 998.69 999.37 1000.31 1002.13 1003.30 1004.68 1006.18 1007.53 1008.64 1009.96 1011.26 1012.28 1013.19 1013.92 1014.50 1015.20 1015.79 1016.17 1016.60 1017.06 1017.47 1017.76 1017.95 1017.92 1018.04 1018.09 1018.12 1017.84 1017.61
998.19 998.27 997.57 996.45 995.52 993.88 993.39 993.43 994.16 993.75 993.20 993.29 994.42 995.77 997.16 998.03 997.54 999.41 1002.07 1003.42 1004.86 1006.33 1007.65 1008.96 1010.28 1011.18 1012.30 1013.24 1013.88 1014.52 1015.27 1015.77 1016.30 1016.67 1017.10 1017.48 1017.81 1017.86 1017.88 1017.86 1017.89 1017.83 1017.64 1017.52
996.98 996.69 996.35 996.14 995.39 994.60 994.38 994.49 993.62 993.00 992.97 993.36 994.28 995.70 997.10 998.03 999.12 1000.32 1002.32 1003.71 1005.17 1006.56 1008.11 1009.38 1010.32 1011.42 1012.54 1013.46 1014.10 1014.78 1015.36 1016.08 1016.53 1016.74 1017.07 1017.36 1017.53 1017.25 1017.32 1017.61 1017.56 1017.76 1017.56 1016.82
997.33 996.86 996.39 996.00 995.04 995.16 994.72 993.94 993.75 994.04 993.98 993.96 994.44 995.75 997.31 998.54 999.82 1001.18 1002.99 1004.57 1005.78 1007.10 1008.48 1009.49 1010.61 1011.74 1012.93 1013.71 1014.34 1014.82 1015.62 1016.21 1016.55 1016.69 1016.89 1017.12 1017.26 1017.39 1017.47 1017.46 1017.37 1016.82 1016.76 1016.35
997.25 998.06 997.49 997.17 996.03 995.26 995.20 994.86 994.94 995.36 995.25 994.89 995.15 996.42 997.90 998.88 1000.18 1001.70 1003.41 1004.66 1006.28 1007.54 1008.62 1009.76 1010.92 1011.83 1012.91 1013.98 1014.55 1015.02 1015.77 1016.08 1016.25 1016.45 1016.54 1016.67 1016.81 1016.91 1017.09 1016.89 1016.72 1016.54 1016.45 1016.33
998.02 998.22 997.41 996.93 996.40 995.93 995.52 995.72 995.65 995.58 995.88 995.78 996.21 997.09 998.47 1000.16 1001.26 1002.53 1003.81 1005.04 1006.49 1007.80 1008.98 1010.10 1011.08 1012.08 1013.05 1013.96 1014.49 1015.05 1015.64 1015.95 1015.94 1016.14 1016.18 1016.31 1016.29 1016.55 1016.60 1016.67 1016.52 1016.52 1016.70 1016.88
998.29 997.57 997.23 996.16 996.69 996.79 996.45 996.74 996.76 996.25 995.97 996.42 997.30 997.80 999.49 1000.83 1001.50 1003.32 1004.55 1005.86 1006.98 1008.22 1009.26 1010.31 1011.38 1012.42 1013.20 1013.93 1014.53 1015.10 1015.58 1015.84 1015.79 1015.94 1015.88 1015.78 1015.87 1016.02 1015.99 1015.96 1015.90 1016.55 1016.78 1017.00
Wind_Speed
13 12 12 10 3 4 1 3 4 4 4 6 9 11 12 17 16 16 15 15 15 14 13 12 11 10 9 9 10 11 9 7 7 6 5 4 5 6 7 7 9 10 7 8
10 16 15 4 5 5 3 4 2 4 3 6 4 7 10 19 19 18 17 15 14 14 13 11 9 9 11 10 9 8 7 7 7 6 4 2 2 3 4 5 7 10 10 10
19 17 9 11 10 10 9 8 4 8 8 6 7 10 10 13 16 17 16 16 15 13 11 8 8 8 8 8 9 9 9 9 6 5 5 4 3 4 3 2 4 6 7 9
18 8 12 16 14 12 15 7 4 8 11 7 4 5 9 11 16 17 17 16 16 15 11 10 9 7 2 3 6 8 11 11 11 11 7 4 2 2 1 4 4 3 4 3
16 14 17 17 16 11 14 5 6 7 12 12 10 8 9 8 10 13 17 18 17 15 12 13 9 8 6 6 9 9 11 10 10 9 8 7 5 5 2 3 4 1 1 1
10 2 14 19 19 12 10 8 9 8 7 13 4 4 5 4 7 6 9 18 17 16 13 9 12 8 9 10 11 11 12 12 8 9 9 7 5 8 6 7 6 3 4 4
13 12 8 8 14 11 15 15 13 13 10 10 5 5 5 8 5 3 5 13 16 15 14 13 13 11 10 11 11 10 9 8 7 10 4 5 3 9 10 8 6 6 6 7
14 16 15 13 14 16 19 20 15 14 10 9 4 7 5 8 7 4 5 8 13 15 13 13 11 11 9 10 12 11 9 10 7 8 9 7 3 4 8 9 4 3 4 5
12 17 6 8 14 13 11 14 20 20 6 9 8 5 9 10 6 6 7 9 12 12 12 12 11 9 8 10 10 8 7 8 9 8 8 9 8 9 8 10 3 3 4 5
8 10 9 15 11 14 14 11 13 12 14 13 9 6 8 8 9 9 11 11 11 12 11 11 9 9 8 7 7 9 10 12 11 10 8 8 8 8 8 7 5 5 5 5
10 12 12 8 14 15 13 13 11 11 14 14 13 11 7 5 9 13 13 12 12 12 12 12 10 9 9 9 11 13 12 13 11 10 9 8 8 8 7 6 5 5 6 6
18 11 13 16 10 5 11 20 20 12 14 12 14 7 4 7 10 13 14 14 13 12 11 11 12 12 11 11 11 12 11 10 10 9 8 8 8 7 7 6 6 7 6 6
16 11 12 14 14 10 11 13 11 14 15 11 10 13 6 7 12 13 15 15 13 13 14 13 12 12 10 12 11 11 10 9 8 7 8 7 8 8 7 7 6 6 6 7
7 15 16 12 15 18 21 18 16 19 14 15 14 17 10 13 14 16 16 16 15 14 15 13 14 14 13 13 12 11 10 9 8 8 7 8 8 7 7 6 6 7 6 6
12 16 12 15 10 8 13 19 20 18 17 19 15 14 16 17 17 17 17 17 16 16 16 15 16 15 14 13 12 10 10 8 7 8 8 9 8 7 7 7 8 8 8 8
13 11 12 15 18 16 15 18 15 18 16 15 14 16 10 10 15 19 19 19 17 17 17 17 17 16 15 14 13 11 9 8 7 8 9 8 8 8 8 8 8 7 7 8
6 11 9 15 18 14 18 19 19 17 16 15 16 16 9 13 18 20 20 19 18 18 18 18 17 15 14 13 12 10 8 8 9 9 8 8 8 8 7 7 8 8 7 7
8 7 7 12 9 18 13 16 19 19 16 15 15 4 9 12 15 18 18 18 18 19 18 17 15 14 14 14 12 10 9 9 9 8 8 7 7 7 6 7 7 6 6 6
14 9 7 7 13 14 8 9 13 14 14 15 15 6 9 14 17 16 17 18 18 19 17 15 14 15 14 13 12 11 9 9 9 9 8 7 6 6 6 7 6 4 4 4
13 13 10 7 12 13 12 17 16 14 14 9 11 13 17 20 16 13 19 18 19 19 16 16 16 15 14 12 11 11 10 8 8 8 7 6 6 6 6 5 4 2 2 3
8 8 14 13 10 8 5 5 12 11 7 12 15 17 20 21 5 21 22 19 19 18 19 19 17 15 14 12 10 10 8 7 7 7 7 7 7 6 5 4 2 3 3 4
10 8 8 7 7 13 6 9 13 7 8 8 13 17 21 14 16 25 22 21 21 21 21 19 16 14 13 11 9 9 8 9 8 8 8 8 6 1 4 2 1 3 4 2
10 9 9 7 4 5 5 11 9 9 10 8 15 19 21 17 23 24 21 21 20 21 18 16 15 15 12 10 9 10 10 9 10 9 8 6 4 2 1 2 2 5 2 3
9 3 6 4 14 18 13 12 14 5 10 5 11 18 18 22 23 24 20 21 19 18 18 15 16 15 13 10 9 10 10 10 9 8 6 5 4 1 1 4 2 2 3 4
6 6 7 10 16 14 15 7 10 10 8 8 15 19 19 21 23 23 21 21 19 18 16 15 13 13 13 11 10 11 10 9 8 6 6 4 4 2 4 1 2 3 2 5
7 8 9 7 7 6 7 9 12 9 9 12 18 22 19 21 22 20 18 17 18 17 16 14 13 13 13 12 11 10 10 8 7 7 6 4 4 3 0 2 2 10 8 8
Wind_Direction
204 222 219 221 25 18 284 284 314 18 47 277 237 241 185 185 195 191 194 193 186 194 177 175 185 193 199 198 198 198 203 191 192 187 204 209 201 215 206 221 224 234 232 247
183 225 226 140 202 241 236 277 286 245 357 257 270 252 202 182 204 198 193 197 196 190 178 175 186 212 199 199 201 192 194 170 188 176 164 220 226 194 238 230 222 219 231 232
224 218 163 195 208 233 226 268 352 334 311 220 278 225 168 198 201 204 202 198 197 197 177 186 192 204 217 195 187 173 153 145 165 145 160 173 192 212 241 241 238 243 235 229
232 166 197 212 221 234 255 157 287 302 302 332 318 306 149 174 201 205 204 199 193 192 192 181 172 126 123 148 157 144 146 150 156 167 160 166 155 217 355 311 321 305 203 237
207 207 208 218 225 210 268 132 266 297 289 307 191 266 116 156 203 202 207 199 198 180 200 191 138 127 123 140 120 134 135 147 156 160 149 153 145 125 72 344 313 147 120 318
256 228 225 232 235 226 251 207 230 243 286 262 158 282 299 73 84 120 199 203 199 179 193 155 141 126 112 110 135 144 143 149 154 139 139 143 188 99 84 31 342 3 10 345
200 196 186 227 217 199 220 235 235 225 203 249 110 237 312 92 98 134 157 190 194 180 179 161 145 137 134 129 127 140 144 120 160 154 137 65 51 84 95 80 17 346 5 3
198 201 199 188 226 205 214 230 238 241 239 274 125 247 106 91 102 123 182 202 178 175 172 168 161 139 139 137 117 125 144 150 132 106 116 138 117 105 100 89 70 37 3 351
204 232 165 220 213 232 210 239 245 261 168 266 267 164 236 172 141 134 126 154 159 173 170 172 154 143 139 133 124 107 130 115 109 107 114 114 95 84 95 74 54 42 4 347
183 229 183 188 220 223 266 261 206 230 249 226 222 229 272 165 167 150 149 153 159 153 162 164 154 133 136 132 126 120 107 112 114 105 95 82 89 81 77 80 67 44 13 4
232 243 158 186 201 198 199 226 237 262 223 248 239 215 138 144 181 168 153 151 153 158 157 147 139 126 132 126 132 125 126 121 116 108 103 99 94 92 88 83 70 45 34 7
215 215 232 204 204 348 233 214 221 225 206 249 286 290 98 141 166 157 154 151 150 149 149 138 131 132 129 131 120 129 124 117 104 102 101 95 90 83 78 65 60 42 28 12
193 221 218 219 214 207 240 236 250 251 249 244 235 239 136 155 155 157 156 149 139 148 140 134 134 127 124 121 138 129 129 116 111 107 97 88 81 73 65 55 46 42 22 13
218 233 227 223 221 210 211 227 224 242 234 235 236 258 173 180 171 170 165 151 153 152 148 138 134 129 138 130 132 131 122 117 107 94 93 91 79 70 65 60 51 43 38 30
234 230 228 239 265 227 247 214 216 232 244 253 248 237 245 184 179 177 162 154 157 151 148 151 137 133 137 133 132 130 121 117 117 118 108 94 89 80 77 69 65 65 59 59
226 241 244 231 230 231 235 239 221 219 238 248 257 264 300 138 158 172 166 162 162 158 153 147 140 144 141 142 142 135 130 119 111 101 91 91 88 79 83 79 72 67 66 60
219 233 214 231 228 226 235 234 226 227 221 233 234 235 151 172 172 173 167 168 163 159 155 151 149 150 147 140 133 127 119 111 93 87 87 87 89 98 95 93 88 80 76 77
261 233 241 249 193 229 242 219 219 227 232 229 243 149 193 182 167 169 170 163 160 158 154 152 153 145 143 139 125 127 112 106 109 109 107 110 118 121 113 110 102 97 89 73
222 252 241 238 222 239 188 194 210 226 222 221 228 161 177 151 157 167 166 162 159 156 153 153 147 147 138 130 132 131 127 126 123 119 114 113 120 128 124 110 95 85 77 64
229 223 267 219 269 239 242 206 211 211 233 218 208 177 164 156 182 167 166 158 153 151 151 148 144 140 140 142 139 134 131 126 121 121 112 105 113 125 116 109 102 71 323 56
175 212 225 227 253 259 61 127 161 201 213 178 194 175 171 184 252 144 159 158 150 150 149 144 149 148 143 143 137 125 128 132 120 124 128 131 136 131 118 110 50 351 344 338
197 206 193 222 251 255 130 174 209 216 245 241 193 178 175 177 127 143 151 150 148 147 144 153 149 141 141 134 134 139 147 136 148 150 142 137 142 116 110 77 16 317 325 303
248 258 295 309 286 35 224 236 252 356 304 243 192 171 174 150 145 142 146 148 148 147 152 152 145 139 137 139 149 154 138 152 152 151 141 136 128 117 36 314 318 263 225 323
166 172 250 269 257 259 259 262 258 308 306 277 178 167 157 154 148 145 145 145 148 151 151 149 147 146 141 145 156 139 153 155 158 148 145 145 170 95 241 255 209 305 340 345
346 155 229 244 261 273 266 293 305 272 272 174 164 153 152 148 145 149 147 147 148 149 148 149 150 146 146 153 151 149 152 161 154 151 145 153 144 169 150 257 352 324 299 341
220 238 228 271 40 322 328 349 333 257 210 172 158 150 147 149 144 146 143 145 146 148 145 148 149 150 147 151 151 151 159 169 159 157 164 124 141 167 173 300 279 209 243 229